• In Netherlands
  • List of Countries
  • For 7 days
  • Water Temperature
  • Satellite Maps
  • Weather Map
  • Weather Widgets
  • user-avatar
    Login

    Hourly Weather Bansko

    Today, 23 May, Tuesday

    Time Temperature Precipitation Wind Pressure Humidity
    00:00 +11°C° 0 mm 1 mps 720 mmHg 94%
    01:00 +11°C° 0 mm 1 mps 720 mmHg 94%
    02:00 +11°C° 0 mm 1 mps 720 mmHg 95%
    03:00 +10°C° 0 mm 1 mps 720 mmHg 95%
    04:00 +10°C° 0 mm 1 mps 720 mmHg 95%
    05:00 +8°C° 0 mm 0 mps 720 mmHg 95%
    06:00 +12°C° 0 mm 0 mps 720 mmHg 87%
    07:00 +15°C° 0 mm 0 mps 721 mmHg 79%
    08:00 +18°C° 0 mm 0 mps 721 mmHg 72%
    09:00 +20°C° 0.1 mm 0 mps 722 mmHg 64%
    10:00 +23°C° 0.1 mm 1 mps 722 mmHg 57%
    11:00 +25°C° 0.1 mm 1 mps 722 mmHg 49%
    12:00 +25°C° 0.4 mm 1 mps 722 mmHg 50%
    13:00 +26°C° 0.4 mm 1 mps 721 mmHg 50%
    14:00 +26°C° 0.4 mm 1 mps 721 mmHg 51%
    15:00 +25°C° 0.9 mm 1 mps 721 mmHg 55%
    16:00 +24°C° 0.9 mm 1 mps 721 mmHg 59%
    17:00 +23°C° 0.9 mm 2 mps 720 mmHg 63%
    18:00 +21°C° 0.9 mm 1 mps 720 mmHg 71%
    19:00 +19°C° 0.9 mm 1 mps 720 mmHg 79%
    20:00 +16°C° 0.9 mm 1 mps 720 mmHg 87%
    21:00 +15°C° 0.4 mm 1 mps 721 mmHg 89%
    22:00 +15°C° 0.4 mm 1 mps 721 mmHg 90%
    23:00 +14°C° 0.4 mm 1 mps 721 mmHg 92%

    Tomorrow, 24 May, Wednesday

    Time Temperature Precipitation Wind Pressure Humidity
    00:00 +14°C° 0.2 mm 1 mps 721 mmHg 93%
    01:00 +13°C° 0.2 mm 1 mps 721 mmHg 94%
    02:00 +13°C° 0.2 mm 1 mps 721 mmHg 95%
    03:00 +13°C° 0.1 mm 1 mps 721 mmHg 96%
    04:00 +12°C° 0.1 mm 1 mps 721 mmHg 96%
    05:00 +12°C° 0.1 mm 1 mps 720 mmHg 96%
    06:00 +14°C° 0.1 mm 1 mps 721 mmHg 90%
    07:00 +16°C° 0.1 mm 1 mps 721 mmHg 84%
    08:00 +19°C° 0.1 mm 1 mps 721 mmHg 79%
    09:00 +20°C° 0.4 mm 1 mps 721 mmHg 74%
    10:00 +21°C° 0.4 mm 1 mps 721 mmHg 70%
    11:00 +22°C° 0.4 mm 1 mps 721 mmHg 65%
    12:00 +23°C° 0.9 mm 1 mps 721 mmHg 64%
    13:00 +23°C° 0.9 mm 1 mps 721 mmHg 64%
    14:00 +24°C° 0.9 mm 1 mps 720 mmHg 63%
    15:00 +23°C° 1.4 mm 1 mps 720 mmHg 65%
    16:00 +23°C° 1.4 mm 1 mps 720 mmHg 68%
    17:00 +22°C° 1.4 mm 1 mps 719 mmHg 70%
    18:00 +20°C° 1.3 mm 1 mps 719 mmHg 77%
    19:00 +18°C° 1.3 mm 1 mps 719 mmHg 84%
    20:00 +16°C° 1.3 mm 1 mps 719 mmHg 92%
    21:00 +15°C° 0.6 mm 1 mps 719 mmHg 93%
    22:00 +15°C° 0.6 mm 1 mps 719 mmHg 94%
    23:00 +14°C° 0.6 mm 1 mps 720 mmHg 95%

    Day after tomorrow, 25 May, Thursday

    Time Temperature Precipitation Wind Pressure Humidity
    00:00 +14°C° 0.2 mm 1 mps 720 mmHg 95%
    01:00 +14°C° 0.2 mm 1 mps 719 mmHg 95%
    02:00 +14°C° 0.2 mm 1 mps 719 mmHg 95%
    03:00 +14°C° 0.1 mm 1 mps 719 mmHg 95%
    04:00 +13°C° 0.1 mm 2 mps 719 mmHg 94%
    05:00 +13°C° 0.1 mm 2 mps 719 mmHg 93%
    06:00 +14°C° 0 mm 2 mps 719 mmHg 84%
    07:00 +15°C° 0 mm 2 mps 719 mmHg 75%
    08:00 +16°C° 0 mm 2 mps 720 mmHg 66%
    09:00 +17°C° 0 mm 2 mps 720 mmHg 58%
    10:00 +19°C° 0 mm 2 mps 720 mmHg 50%
    11:00 +20°C° 0 mm 2 mps 719 mmHg 41%
    12:00 +21°C° 0 mm 2 mps 719 mmHg 40%
    13:00 +21°C° 0 mm 2 mps 719 mmHg 38%
    14:00 +23°C° 0 mm 2 mps 718 mmHg 37%
    15:00 +23°C° 0 mm 2 mps 718 mmHg 37%
    16:00 +23°C° 0 mm 2 mps 718 mmHg 38%
    17:00 +23°C° 0 mm 2 mps 718 mmHg 39%
    18:00 +20°C° 0 mm 1 mps 717 mmHg 51%
    19:00 +16°C° 0 mm 1 mps 717 mmHg 63%
    20:00 +13°C° 0 mm 1 mps 717 mmHg 74%
    21:00 +12°C° 0 mm 1 mps 717 mmHg 77%
    22:00 +12°C° 0 mm 1 mps 717 mmHg 80%
    23:00 +10°C° 0 mm 0 mps 717 mmHg 82%

    26 May, Friday

    Time Temperature Precipitation Wind Pressure Humidity
    00:00 +10°C° 0 mm 0 mps 717 mmHg 83%
    01:00 +10°C° 0 mm 0 mps 717 mmHg 84%
    02:00 +10°C° 0 mm 0 mps 717 mmHg 85%
    03:00 +10°C° 0.1 mm 0 mps 717 mmHg 86%
    04:00 +10°C° 0.1 mm 0 mps 717 mmHg 86%
    05:00 +11°C° 0.1 mm 1 mps 717 mmHg 87%
    06:00 +13°C° 0.1 mm 1 mps 717 mmHg 81%
    07:00 +15°C° 0.1 mm 1 mps 718 mmHg 74%
    08:00 +18°C° 0.1 mm 1 mps 718 mmHg 67%
    09:00 +19°C° 0.2 mm 1 mps 718 mmHg 64%
    10:00 +19°C° 0.2 mm 1 mps 718 mmHg 62%
    11:00 +20°C° 0.2 mm 1 mps 719 mmHg 59%
    12:00 +21°C° 0.4 mm 1 mps 718 mmHg 59%
    13:00 +21°C° 0.4 mm 1 mps 718 mmHg 58%
    14:00 +22°C° 0.4 mm 1 mps 718 mmHg 58%
    15:00 +21°C° 0.5 mm 1 mps 717 mmHg 62%
    16:00 +20°C° 0.5 mm 1 mps 717 mmHg 67%
    17:00 +19°C° 0.5 mm 2 mps 717 mmHg 71%
    18:00 +18°C° 0.6 mm 1 mps 717 mmHg 78%
    19:00 +16°C° 0.6 mm 1 mps 717 mmHg 85%
    20:00 +14°C° 0.6 mm 1 mps 717 mmHg 91%
    21:00 +14°C° 1.1 mm 1 mps 717 mmHg 93%
    22:00 +14°C° 1.1 mm 1 mps 718 mmHg 94%
    23:00 +13°C° 1.1 mm 1 mps 718 mmHg 95%

    27 May, Saturday

    Time Temperature Precipitation Wind Pressure Humidity
    00:00 +13°C° 1.3 mm 1 mps 718 mmHg 95%
    01:00 +13°C° 1.3 mm 1 mps 718 mmHg 95%
    02:00 +13°C° 1.3 mm 1 mps 717 mmHg 96%
    03:00 +13°C° 1.1 mm 1 mps 717 mmHg 96%
    04:00 +13°C° 1.1 mm 1 mps 718 mmHg 96%
    05:00 +12°C° 1.1 mm 1 mps 718 mmHg 96%
    06:00 +13°C° 1.1 mm 1 mps 718 mmHg 95%
    07:00 +13°C° 1.1 mm 2 mps 718 mmHg 94%
    08:00 +14°C° 1.1 mm 2 mps 718 mmHg 93%
    09:00 +14°C° 1.1 mm 2 mps 719 mmHg 91%
    10:00 +15°C° 1.1 mm 2 mps 719 mmHg 90%
    11:00 +15°C° 1.1 mm 2 mps 719 mmHg 88%
    12:00 +16°C° 0.9 mm 2 mps 719 mmHg 87%
    13:00 +16°C° 0.9 mm 2 mps 719 mmHg 85%
    14:00 +16°C° 0.9 mm 2 mps 719 mmHg 83%
    15:00 +16°C° 0.7 mm 2 mps 719 mmHg 82%
    16:00 +17°C° 0.7 mm 2 mps 719 mmHg 81%
    17:00 +17°C° 0.7 mm 2 mps 719 mmHg 80%
    18:00 +16°C° 0.5 mm 2 mps 719 mmHg 84%
    19:00 +15°C° 0.5 mm 2 mps 719 mmHg 88%
    20:00 +14°C° 0.5 mm 2 mps 720 mmHg 92%
    21:00 +14°C° 0.9 mm 2 mps 720 mmHg 93%
    22:00 +13°C° 0.9 mm 2 mps 720 mmHg 94%
    23:00 +13°C° 0.9 mm 2 mps 721 mmHg 95%

    28 May, Sunday

    Time Temperature Precipitation Wind Pressure Humidity
    00:00 +13°C° 0.8 mm 2 mps 721 mmHg 95%
    01:00 +13°C° 0.8 mm 2 mps 721 mmHg 95%
    02:00 +13°C° 0.8 mm 2 mps 721 mmHg 96%
    03:00 +13°C° 0.3 mm 2 mps 722 mmHg 96%
    04:00 +13°C° 0.3 mm 2 mps 722 mmHg 96%
    05:00 +13°C° 0.3 mm 2 mps 722 mmHg 96%
    06:00 +14°C° 0.1 mm 2 mps 723 mmHg 93%
    07:00 +15°C° 0.1 mm 2 mps 723 mmHg 90%
    08:00 +16°C° 0.1 mm 2 mps 724 mmHg 87%
    09:00 +17°C° 0 mm 2 mps 724 mmHg 77%
    10:00 +19°C° 0 mm 2 mps 725 mmHg 67%
    11:00 +21°C° 0 mm 3 mps 725 mmHg 57%
    12:00 +22°C° 0.2 mm 3 mps 725 mmHg 54%
    13:00 +22°C° 0.2 mm 3 mps 725 mmHg 51%
    14:00 +24°C° 0.2 mm 3 mps 725 mmHg 47%
    15:00 +24°C° 0.3 mm 3 mps 725 mmHg 48%
    16:00 +22°C° 0.3 mm 3 mps 725 mmHg 49%
    17:00 +22°C° 0.3 mm 3 mps 725 mmHg 50%
    18:00 +20°C° 0.1 mm 2 mps 725 mmHg 60%
    19:00 +17°C° 0.1 mm 2 mps 725 mmHg 70%
    20:00 +14°C° 0.1 mm 2 mps 725 mmHg 80%
    21:00 +13°C° 0 mm 1 mps 725 mmHg 82%
    22:00 +12°C° 0 mm 1 mps 726 mmHg 85%
    23:00 +11°C° 0 mm 1 mps 726 mmHg 87%
    Show more